Simultaneous Nadir Overpasses (SNOs) Predictions

Prediction of SNOs between GOES-17 and AQUA Satellite Orbit:

Table of predicted SNOs for the next 14.0 days since TLE Epoch: 4/24/2020
Index Date Time (GOES-17) GOES-17 Lat,Lon AQUA Lat,Lon Distance(km) Time Diff (sec)
1 04/26/2020 10:45:47 -0.02,-137.19 -0.01,-137.18 1.20 80
2 04/28/2020 10:30:55 -0.02,-137.17 -0.64,-134.22 334.83 80
3 04/28/2020 22:52:19 0.01,-137.16 -0.49,-139.41 256.64 80
4 04/30/2020 22:42:47 0.01,-137.13 0.14,-136.45 76.79 80
5 05/02/2020 22:30:35 0.01,-137.09 0.78,-133.49 409.68 80
6 05/03/2020 10:51:50 -0.01,-137.09 0.31,-138.65 176.90 80
7 05/05/2020 10:36:57 -0.01,-137.05 -0.27,-135.68 155.42 80
8 05/05/2020 22:58:22 0.00,-137.04 -0.80,-140.88 436.77 80
9 05/07/2020 10:24:45 -0.01,-137.01 -0.91,-132.72 487.04 80
10 05/07/2020 22:46:09 0.01,-136.99 -0.21,-137.91 105.29 80




NCC Satellite Simultaneous Nadir Overpasses (SNOs) Prediction Service
